Hourly Weather Rusilovo

Today, 18 April, Sunday

Time Temperature Precipitation Wind Pressure Humidity
00:00 +5°C° 0 mm 4 mps 754 mmHg 67%
01:00 +5°C° 0 mm 4 mps 754 mmHg 71%
02:00 +4°C° 0 mm 3 mps 754 mmHg 75%
03:00 +4°C° 0 mm 4 mps 754 mmHg 77%
04:00 +4°C° 0 mm 4 mps 754 mmHg 79%
05:00 +3°C° 0 mm 4 mps 754 mmHg 80%
06:00 +5°C° 0 mm 4 mps 754 mmHg 74%
07:00 +6°C° 0 mm 5 mps 754 mmHg 67%
08:00 +8°C° 0 mm 5 mps 754 mmHg 60%
09:00 +9°C° 0 mm 5 mps 754 mmHg 55%
10:00 +10°C° 0 mm 5 mps 754 mmHg 49%
11:00 +11°C° 0 mm 6 mps 753 mmHg 44%
12:00 +13°C° 0 mm 6 mps 753 mmHg 42%
13:00 +13°C° 0 mm 6 mps 753 mmHg 40%
14:00 +13°C° 0 mm 6 mps 754 mmHg 38%
15:00 +13°C° 0 mm 6 mps 754 mmHg 41%
16:00 +12°C° 0 mm 5 mps 754 mmHg 45%
17:00 +12°C° 0 mm 5 mps 754 mmHg 48%
18:00 +10°C° 0 mm 5 mps 754 mmHg 54%
19:00 +8°C° 0 mm 5 mps 754 mmHg 59%
20:00 +7°C° 0 mm 5 mps 755 mmHg 65%
21:00 +6°C° 0 mm 5 mps 755 mmHg 70%
22:00 +5°C° 0 mm 4 mps 755 mmHg 76%
23:00 +5°C° 0 mm 4 mps 755 mmHg 81%

Tomorrow, 19 April, Monday

Time Temperature Precipitation Wind Pressure Humidity
00:00 +4°C° 0 mm 4 mps 756 mmHg 82%
01:00 +4°C° 0 mm 4 mps 756 mmHg 84%
02:00 +3°C° 0 mm 4 mps 756 mmHg 86%
03:00 +3°C° 0 mm 4 mps 756 mmHg 85%
04:00 +1°C° 0 mm 4 mps 756 mmHg 84%
05:00 +1°C° 0 mm 4 mps 756 mmHg 83%
06:00 +3°C° 0 mm 4 mps 756 mmHg 77%
07:00 +3°C° 0 mm 4 mps 756 mmHg 71%
08:00 +4°C° 0 mm 4 mps 756 mmHg 65%
09:00 +5°C° 0 mm 5 mps 756 mmHg 61%
10:00 +5°C° 0 mm 5 mps 756 mmHg 57%
11:00 +6°C° 0 mm 5 mps 756 mmHg 54%
12:00 +6°C° 0 mm 5 mps 756 mmHg 52%
13:00 +7°C° 0 mm 5 mps 756 mmHg 51%
14:00 +7°C° 0 mm 5 mps 756 mmHg 49%
15:00 +7°C° 0 mm 5 mps 756 mmHg 51%
16:00 +7°C° 0 mm 4 mps 756 mmHg 52%
17:00 +6°C° 0 mm 4 mps 756 mmHg 53%
18:00 +6°C° 0 mm 4 mps 756 mmHg 54%
19:00 +5°C° 0 mm 4 mps 756 mmHg 55%
20:00 +4°C° 0 mm 3 mps 756 mmHg 57%
21:00 +4°C° 0 mm 4 mps 756 mmHg 57%
22:00 +3°C° 0 mm 4 mps 756 mmHg 57%
23:00 +1°C° 0 mm 4 mps 755 mmHg 58%

Day after tomorrow, 20 April, Tuesday

Time Temperature Precipitation Wind Pressure Humidity
00:00 +1°C° 0 mm 4 mps 755 mmHg 59%
01:00 0°C° 0 mm 4 mps 755 mmHg 60%
02:00 0°C° 0 mm 4 mps 755 mmHg 61%
03:00 0°C° 0 mm 4 mps 755 mmHg 63%
04:00 0°C° 0 mm 4 mps 754 mmHg 65%
05:00 0°C° 0 mm 4 mps 754 mmHg 66%
06:00 0°C° 0.1 mm 4 mps 754 mmHg 71%
07:00 0°C° 0.1 mm 5 mps 754 mmHg 75%
08:00 0°C° 0.1 mm 5 mps 754 mmHg 80%
09:00 0°C° 0.1 mm 5 mps 754 mmHg 84%
10:00 0°C° 0.1 mm 4 mps 753 mmHg 88%
11:00 +1°C° 0.1 mm 4 mps 753 mmHg 92%
12:00 +1°C° 0.3 mm 4 mps 753 mmHg 93%
13:00 +1°C° 0.3 mm 4 mps 752 mmHg 94%
14:00 +1°C° 0.3 mm 4 mps 752 mmHg 95%
15:00 +1°C° 0.3 mm 4 mps 752 mmHg 95%
16:00 +1°C° 0.3 mm 4 mps 751 mmHg 96%
17:00 +1°C° 0.3 mm 4 mps 751 mmHg 96%
18:00 +1°C° 0.8 mm 4 mps 750 mmHg 96%
19:00 +1°C° 0.8 mm 4 mps 750 mmHg 95%
20:00 +1°C° 0.8 mm 4 mps 749 mmHg 94%
21:00 +3°C° 0.6 mm 4 mps 748 mmHg 90%
22:00 +2°C° 0.6 mm 5 mps 747 mmHg 85%
23:00 +3°C° 0.6 mm 6 mps 746 mmHg 80%

21 April, Wednesday

Time Temperature Precipitation Wind Pressure Humidity
00:00 +2°C° 1.1 mm 6 mps 745 mmHg 86%
01:00 +1°C° 1.1 mm 6 mps 744 mmHg 91%
02:00 -1°C° 1.1 mm 6 mps 742 mmHg 96%
03:00 -1°C° 1.7 mm 6 mps 741 mmHg 96%
04:00 -1°C° 1.7 mm 6 mps 741 mmHg 96%
05:00 -2°C° 1.7 mm 6 mps 740 mmHg 96%
06:00 -1°C° 0.2 mm 6 mps 739 mmHg 95%
07:00 +1°C° 0.2 mm 6 mps 739 mmHg 94%
08:00 +2°C° 0.2 mm 6 mps 738 mmHg 94%
09:00 +2°C° 0.2 mm 6 mps 738 mmHg 93%
10:00 +3°C° 0.2 mm 6 mps 737 mmHg 93%
11:00 +3°C° 0.2 mm 6 mps 737 mmHg 92%
12:00 +3°C° 0.3 mm 5 mps 737 mmHg 93%
13:00 +3°C° 0.3 mm 5 mps 736 mmHg 93%
14:00 +5°C° 0.3 mm 5 mps 736 mmHg 94%
15:00 +4°C° 0.3 mm 4 mps 736 mmHg 94%
16:00 +3°C° 0.3 mm 4 mps 736 mmHg 95%
17:00 +2°C° 0.3 mm 3 mps 736 mmHg 96%
18:00 +1°C° 0.3 mm 4 mps 737 mmHg 96%
19:00 +1°C° 0.3 mm 4 mps 737 mmHg 97%
20:00 +1°C° 0.3 mm 4 mps 738 mmHg 97%
21:00 +1°C° 0.6 mm 5 mps 739 mmHg 96%
22:00 0°C° 0.6 mm 5 mps 740 mmHg 95%
23:00 -1°C° 0.6 mm 6 mps 742 mmHg 95%

22 April, Thursday

Time Temperature Precipitation Wind Pressure Humidity
00:00 +1°C° 0 mm 5 mps 742 mmHg 93%
01:00 +1°C° 0 mm 5 mps 743 mmHg 92%
02:00 +1°C° 0 mm 5 mps 744 mmHg 91%
03:00 +1°C° 0 mm 5 mps 744 mmHg 90%
04:00 +1°C° 0 mm 5 mps 745 mmHg 90%
05:00 +1°C° 0 mm 4 mps 745 mmHg 89%
06:00 +3°C° 0 mm 4 mps 746 mmHg 87%
07:00 +4°C° 0 mm 4 mps 746 mmHg 84%
08:00 +5°C° 0 mm 4 mps 747 mmHg 81%
09:00 +6°C° 0.1 mm 5 mps 747 mmHg 76%
10:00 +7°C° 0.1 mm 5 mps 747 mmHg 71%
11:00 +8°C° 0.1 mm 5 mps 748 mmHg 66%
12:00 +9°C° 0 mm 5 mps 748 mmHg 62%
13:00 +11°C° 0 mm 4 mps 749 mmHg 59%
14:00 +11°C° 0 mm 4 mps 749 mmHg 55%
15:00 +11°C° 0 mm 3 mps 749 mmHg 59%
16:00 +12°C° 0 mm 2 mps 750 mmHg 63%
17:00 +10°C° 0 mm 2 mps 750 mmHg 67%
18:00 +10°C° 0 mm 1 mps 750 mmHg 72%
19:00 +9°C° 0 mm 1 mps 751 mmHg 77%
20:00 +7°C° 0 mm 1 mps 751 mmHg 82%
21:00 +7°C° 0 mm 1 mps 751 mmHg 84%
22:00 +6°C° 0 mm 1 mps 751 mmHg 85%
23:00 +6°C° 0 mm 1 mps 751 mmHg 87%

23 April, Friday

Time Temperature Precipitation Wind Pressure Humidity
00:00 +4°C° 0 mm 2 mps 751 mmHg 89%
01:00 +4°C° 0 mm 2 mps 751 mmHg 90%
02:00 +4°C° 0 mm 2 mps 751 mmHg 91%
03:00 +4°C° 0 mm 2 mps 751 mmHg 92%
04:00 +4°C° 0 mm 2 mps 751 mmHg 93%
05:00 +4°C° 0 mm 2 mps 751 mmHg 94%
06:00 +6°C° 0 mm 2 mps 751 mmHg 88%
07:00 +8°C° 0 mm 2 mps 751 mmHg 82%
08:00 +10°C° 0 mm 3 mps 751 mmHg 75%
09:00 +12°C° 0 mm 3 mps 751 mmHg 69%
10:00 +13°C° 0 mm 3 mps 751 mmHg 63%
11:00 +14°C° 0 mm 3 mps 750 mmHg 57%
12:00 +15°C° 0 mm 4 mps 750 mmHg 54%
13:00 +15°C° 0 mm 4 mps 750 mmHg 52%
14:00 +17°C° 0 mm 4 mps 749 mmHg 49%
15:00 +15°C° 0.2 mm 4 mps 749 mmHg 55%
16:00 +15°C° 0.2 mm 4 mps 749 mmHg 60%
17:00 +14°C° 0.2 mm 4 mps 749 mmHg 66%
18:00 +12°C° 0.3 mm 3 mps 749 mmHg 73%
19:00 +11°C° 0.3 mm 3 mps 749 mmHg 80%
20:00 +10°C° 0.3 mm 3 mps 748 mmHg 87%
21:00 +10°C° 0.3 mm 3 mps 748 mmHg 88%
22:00 +9°C° 0.3 mm 2 mps 749 mmHg 89%
23:00 +9°C° 0.3 mm 2 mps 749 mmHg 91%
Show more